Location: Unspecified
(0.0000°N, 0.0000°E)
Time: 00:18:32
(UTC+02:00)

GP-B - Visible Passes

Search period start: 26 April 2017 00:00
Search period end: 06 May 2017 00:00
Orbit: 632 x 636 km, 89.8° (Epoch: 24 April)

Date Brightness Start Highest point End Pass type
(mag) Time Alt. Az. Time Alt. Az. Time Alt. Az.
26 Apr 5.8 07:09:20 10° NE 07:12:47 22° E 07:16:14 10° SE visible
27 Apr 4.1 07:30:15 10° NNE 07:34:33 52° E 07:38:53 10° S visible
29 Apr 6.4 06:39:30 10° ENE 06:41:06 12° E 06:42:41 10° ESE visible
29 Apr 6.1 20:26:05 10° SW 20:29:04 18° W 20:32:03 10° NW visible
30 Apr 5.4 06:59:06 10° NE 07:02:52 27° E 07:06:37 10° SSE visible
01 May 3.6 07:20:15 10° NNE 07:24:38 65° E 07:29:02 10° S visible
03 May 6.2 06:28:44 10° ENE 06:31:10 14° E 06:33:35 10° SE visible
04 May 4.9 06:48:57 10° NNE 06:52:56 33° E 06:56:55 10° SSE visible
05 May 3.2 07:10:16 10° N 07:14:42 80° E 07:19:09 10° S visible
